"Period start","avg(HW err(1)/warn(2) (#))","avg(Visibility (m))","avg(Weather code (#))","avg(Precip intensity (mm/h))","min(HW err(1)/warn(2) (#))","max(HW err(1)/warn(2) (#))","std(HW err(1)/warn(2) (#))","med(HW err(1)/warn(2) (#))","min(Visibility (m))","max(Visibility (m))","std(Visibility (m))","med(Visibility (m))","min(Weather code (#))","max(Weather code (#))","std(Weather code (#))","med(Weather code (#))","min(Precip intensity (mm/h))","max(Precip intensity (mm/h))","std(Precip intensity (mm/h))","med(Precip intensity (mm/h))"
2014-09-26 00:00:00,2,47517,0,0.00,2,2,0,2,42157,50000,2880,48832,0,0,0,0,0.00,0.00,0.00,0.00
2014-09-26 00:10:00,2,42419,0,0.00,2,2,0,2,33321,50000,5189,42896,0,0,0,0,0.00,0.00,0.00,0.00
2014-09-26 00:20:00,2,49508,0,0.00,2,2,0,2,47384,50000,764,49789,0,0,0,0,0.00,0.00,0.00,0.00
2014-09-26 00:30:00,2,46833,0,0.00,2,2,0,2,42535,50000,2785,47301,0,0,0,0,0.00,0.00,0.00,0.00
2014-09-26 00:40:00,2,45848,0,0.00,2,2,0,2,39271,50000,3847,46144,0,0,0,0,0.00,0.00,0.00,0.00
2014-09-26 00:50:00,2,44981,0,0.00,2,2,0,2,39601,50000,2802,45686,0,0,0,0,0.00,0.00,0.00,0.00
2014-09-26 01:00:00,2,47110,0,0.00,2,2,0,2,43529,50000,2276,46471,0,0,0,0,0.00,0.00,0.00,0.00
2014-09-26 01:10:00,2,46921,0,0.00,2,2,0,2,40937,50000,3253,48348,0,0,0,0,0.00,0.00,0.00,0.00
2014-09-26 01:20:00,2,44858,0,0.00,2,2,0,2,35367,50000,4865,45436,0,0,0,0,0.00,0.00,0.00,0.00
2014-09-26 01:30:00,2,42946,0,0.00,2,2,0,2,32146,50000,5645,43593,0,0,0,0,0.00,0.00,0.00,0.00
2014-09-26 01:40:00,2,46517,0,0.00,2,2,0,2,43494,50000,2402,46217,0,0,0,0,0.00,0.00,0.00,0.00
2014-09-26 01:50:00,2,45164,0,0.00,2,2,0,2,38706,50000,4410,45380,0,0,0,0,0.00,0.00,0.00,0.00
2014-09-26 02:00:00,2,46489,0,0.00,2,2,0,2,36549,50000,4200,47750,0,0,0,0,0.00,0.00,0.00,0.00
2014-09-26 02:10:00,2,44864,0,0.00,2,2,0,2,39962,48323,3228,46292,0,0,0,0,0.00,0.00,0.00,0.00
2014-09-26 02:20:00,2,48011,0,0.00,2,2,0,2,41679,50000,2496,48554,0,0,0,0,0.00,0.00,0.00,0.00
2014-09-26 02:30:00,2,47508,0,0.00,2,2,0,2,42953,50000,2749,48900,0,0,0,0,0.00,0.00,0.00,0.00
2014-09-26 02:40:00,2,44368,0,0.00,2,2,0,2,37261,50000,4648,44986,0,0,0,0,0.00,0.00,0.00,0.00
2014-09-26 02:50:00,2,48514,0,0.00,2,2,0,2,46141,50000,1315,48390,0,0,0,0,0.00,0.00,0.00,0.00
2014-09-26 03:00:00,2,46051,0,0.00,2,2,0,2,40494,50000,3081,46652,0,0,0,0,0.00,0.00,0.00,0.00
2014-09-26 03:10:00,2,49445,0,0.00,2,2,0,2,48079,50000,765,50000,0,0,0,0,0.00,0.00,0.00,0.00
2014-09-26 03:20:00,2,41841,0,0.00,2,2,0,2,33532,48952,4446,42642,0,0,0,0,0.00,0.00,0.00,0.00
2014-09-26 03:30:00,2,46252,0,0.00,2,2,0,2,39159,50000,4232,47863,0,0,0,0,0.00,0.00,0.00,0.00
2014-09-26 03:40:00,2,46036,0,0.00,2,2,0,2,38857,50000,3619,46112,0,0,0,0,0.00,0.00,0.00,0.00
2014-09-26 03:50:00,2,42667,0,0.00,2,2,0,2,35747,48141,3909,43780,0,0,0,0,0.00,0.00,0.00,0.00
2014-09-26 04:00:00,2,44056,0,0.00,2,2,0,2,35702,50000,4389,43831,0,0,0,0,0.00,0.00,0.00,0.00
2014-09-26 04:10:00,2,47949,0,0.00,2,2,0,2,39718,50000,3197,49510,0,0,0,0,0.00,0.00,0.00,0.00
2014-09-26 04:20:00,2,47180,0,0.00,2,2,0,2,42322,50000,2633,47727,0,0,0,0,0.00,0.00,0.00,0.00
2014-09-26 04:30:00,2,48527,0,0.00,2,2,0,2,40285,50000,3128,50000,0,0,0,0,0.00,0.00,0.00,0.00
2014-09-26 04:40:00,2,49966,0,0.00,2,2,0,2,49663,50000,101,50000,0,0,0,0,0.00,0.00,0.00,0.00
2014-09-26 04:50:00,2,48692,0,0.00,2,2,0,2,44644,50000,1947,49677,0,0,0,0,0.00,0.00,0.00,0.00
2014-09-26 05:00:00,2,49962,0,0.00,2,2,0,2,49625,50000,112,50000,0,0,0,0,0.00,0.00,0.00,0.00
2014-09-26 05:10:00,2,49914,0,0.00,2,2,0,2,49140,50000,258,50000,0,0,0,0,0.00,0.00,0.00,0.00
2014-09-26 05:20:00,2,50000,0,0.00,2,2,0,2,50000,50000,0,50000,0,0,0,0,0.00,0.00,0.00,0.00
2014-09-26 05:30:00,2,49913,0,0.00,2,2,0,2,49133,50000,260,50000,0,0,0,0,0.00,0.00,0.00,0.00
2014-09-26 05:40:00,2,49867,0,0.00,2,2,0,2,48844,50000,345,50000,0,0,0,0,0.00,0.00,0.00,0.00
2014-09-26 05:50:00,2,48892,0,0.00,2,2,0,2,44557,50000,1801,49776,0,0,0,0,0.00,0.00,0.00,0.00
2014-09-26 06:00:00,2,49980,0,0.00,2,2,0,2,49805,50000,58,50000,0,0,0,0,0.00,0.00,0.00,0.00
2014-09-26 06:10:00,2,50000,0,0.00,2,2,0,2,50000,50000,0,50000,0,0,0,0,0.00,0.00,0.00,0.00
2014-09-26 06:20:00,2,50000,0,0.00,2,2,0,2,50000,50000,0,50000,0,0,0,0,0.00,0.00,0.00,0.00
2014-09-26 06:30:00,2,49580,0,0.00,2,2,0,2,45795,50000,1262,50000,0,0,0,0,0.00,0.00,0.00,0.00
2014-09-26 06:40:00,2,49909,0,0.00,2,2,0,2,49086,50000,274,50000,0,0,0,0,0.00,0.00,0.00,0.00
2014-09-26 06:50:00,2,50000,0,0.00,2,2,0,2,50000,50000,0,50000,0,0,0,0,0.00,0.00,0.00,0.00
2014-09-26 07:00:00,2,50000,0,0.00,2,2,0,2,50000,50000,0,50000,0,0,0,0,0.00,0.00,0.00,0.00
2014-09-26 07:10:00,2,50000,0,0.00,2,2,0,2,50000,50000,0,50000,0,0,0,0,0.00,0.00,0.00,0.00
2014-09-26 07:20:00,2,49992,0,0.00,2,2,0,2,49919,50000,24,50000,0,0,0,0,0.00,0.00,0.00,0.00
2014-09-26 07:30:00,2,49188,0,0.00,2,2,0,2,44520,50000,1676,50000,0,0,0,0,0.00,0.00,0.00,0.00
2014-09-26 07:40:00,2,50000,0,0.00,2,2,0,2,50000,50000,0,50000,0,0,0,0,0.00,0.00,0.00,0.00
2014-09-26 07:50:00,2,48853,0,0.00,2,2,0,2,44950,50000,1764,50000,0,0,0,0,0.00,0.00,0.00,0.00
2014-09-26 08:00:00,2,46951,0,0.00,2,2,0,2,42939,50000,2460,47002,0,0,0,0,0.00,0.00,0.00,0.00
2014-09-26 08:10:00,2,49736,0,0.00,2,2,0,2,47359,50000,792,50000,0,0,0,0,0.00,0.00,0.00,0.00
2014-09-26 08:20:00,2,50000,0,0.00,2,2,0,2,50000,50000,0,50000,0,0,0,0,0.00,0.00,0.00,0.00
2014-09-26 08:30:00,2,49712,0,0.00,2,2,0,2,48188,50000,600,50000,0,0,0,0,0.00,0.00,0.00,0.00
2014-09-26 08:40:00,2,48907,0,0.00,2,2,0,2,44956,50000,1975,50000,0,0,0,0,0.00,0.00,0.00,0.00
2014-09-26 08:50:00,2,48955,0,0.00,2,2,0,2,40942,50000,2692,50000,0,0,0,0,0.00,0.00,0.00,0.00
2014-09-26 09:00:00,2,39586,0,0.00,2,2,0,2,28115,50000,6617,40848,0,0,0,0,0.00,0.00,0.00,0.00
2014-09-26 09:10:00,2,28648,12,0.01,2,2,0,2,23559,32557,3453,30548,0,40,18,0,0.00,0.05,0.02,0.00
2014-09-26 09:20:00,2,48867,18,0.00,2,2,0,2,40168,50000,2925,50000,0,71,29,0,0.00,0.00,0.00,0.00
2014-09-26 09:30:00,2,49978,0,0.00,2,2,0,2,49783,50000,65,50000,0,0,0,0,0.00,0.00,0.00,0.00
2014-09-26 09:40:00,2,42586,36,0.00,2,2,0,2,32583,50000,6104,44716,0,77,36,36,0.00,0.00,0.00,0.00
2014-09-26 09:50:00,2,48800,52,0.00,2,2,0,2,42772,50000,2386,50000,0,77,34,71,0.00,0.00,0.00,0.00
2014-09-26 10:00:00,2,48587,7,0.00,2,2,0,2,35870,50000,4239,50000,0,71,21,0,0.00,0.00,0.00,0.00
2014-09-26 10:10:00,2,15639,71,0.29,2,2,0,2,4821,26018,7421,16016,71,71,0,71,0.00,1.15,0.36,0.10
2014-09-26 10:20:00,2,4331,71,0.98,2,2,0,2,3394,7382,1163,4016,71,71,0,71,0.60,1.60,0.27,0.92
2014-09-26 10:30:00,2,6255,72,0.19,2,2,0,2,4662,8079,1219,6209,71,77,2,71,0.05,0.25,0.06,0.20
2014-09-26 10:40:00,2,4880,76,0.10,2,2,0,2,3956,6750,857,4756,71,77,2,77,0.00,0.20,0.07,0.08
2014-09-26 10:50:00,2,4750,77,0.15,2,2,0,2,3746,6490,870,4366,77,77,0,77,0.05,0.25,0.06,0.15
2014-09-26 11:00:00,2,8926,76,0.03,2,2,0,2,7103,11503,1431,8578,71,77,2,77,0.00,0.10,0.03,0.03
2014-09-26 11:10:00,2,9858,76,0.03,2,2,0,2,7884,12156,1415,9848,71,77,2,77,0.00,0.05,0.03,0.03
2014-09-26 11:20:00,2,10538,74,0.13,2,2,0,2,7094,14883,1967,10584,71,77,3,74,0.00,0.45,0.12,0.10
2014-09-26 11:30:00,2,5555,71,0.92,2,2,0,2,4066,7470,1059,5420,71,71,0,71,0.50,2.00,0.44,0.75
2014-09-26 11:40:00,2,5352,71,0.43,2,2,0,2,3828,8489,1923,4102,71,71,0,71,0.10,0.90,0.26,0.53
2014-09-26 11:50:00,2,6246,76,0.11,2,2,0,2,4801,8368,1240,6166,71,77,2,77,0.05,0.20,0.06,0.10
2014-09-26 12:00:00,2,6258,73,0.11,2,2,0,2,4981,8269,939,6043,71,77,3,71,0.05,0.45,0.13,0.05
2014-09-26 12:10:00,2,15452,74,0.00,2,2,0,2,8550,25207,5207,14872,71,77,3,74,0.00,0.00,0.00,0.00
2014-09-26 12:20:00,2,18450,75,0.01,2,2,0,2,8142,32076,8260,17540,71,77,3,77,0.00,0.05,0.02,0.00
2014-09-26 12:30:00,2,9833,76,0.01,2,2,0,2,8620,12367,984,9602,71,77,2,77,0.00,0.05,0.02,0.00
2014-09-26 12:40:00,2,12630,75,0.01,2,2,0,2,7468,21867,5325,10761,71,77,3,77,0.00,0.05,0.02,0.00
2014-09-26 12:50:00,2,41958,37,0.00,2,2,0,2,23880,50000,9508,47678,0,77,37,36,0.00,0.00,0.00,0.00
2014-09-26 13:00:00,2,50000,0,0.00,2,2,0,2,50000,50000,0,50000,0,0,0,0,0.00,0.00,0.00,0.00
2014-09-26 13:10:00,2,50000,0,0.00,2,2,0,2,50000,50000,0,50000,0,0,0,0,0.00,0.00,0.00,0.00
2014-09-26 13:20:00,2,50000,0,0.00,2,2,0,2,50000,50000,0,50000,0,0,0,0,0.00,0.00,0.00,0.00
2014-09-26 13:30:00,2,50000,0,0.00,2,2,0,2,50000,50000,0,50000,0,0,0,0,0.00,0.00,0.00,0.00
2014-09-26 13:40:00,2,50000,0,0.00,2,2,0,2,50000,50000,0,50000,0,0,0,0,0.00,0.00,0.00,0.00
2014-09-26 13:50:00,2,50000,0,0.00,2,2,0,2,50000,50000,0,50000,0,0,0,0,0.00,0.00,0.00,0.00
2014-09-26 14:00:00,2,50000,0,0.00,2,2,0,2,50000,50000,0,50000,0,0,0,0,0.00,0.00,0.00,0.00
2014-09-26 14:10:00,2,47960,0,0.00,2,2,0,2,37562,50000,4039,50000,0,0,0,0,0.00,0.00,0.00,0.00
2014-09-26 14:20:00,2,45299,0,0.00,2,2,0,2,35629,50000,5257,47574,0,0,0,0,0.00,0.00,0.00,0.00
2014-09-26 14:30:00,2,41016,0,0.00,2,2,0,2,34345,46126,3432,41016,0,0,0,0,0.00,0.00,0.00,0.00
2014-09-26 14:40:00,2,36420,0,0.00,2,2,0,2,26906,46006,5292,36404,0,0,0,0,0.00,0.00,0.00,0.00
2014-09-26 14:50:00,2,42018,0,0.00,2,2,0,2,21740,50000,9362,46274,0,0,0,0,0.00,0.00,0.00,0.00
2014-09-26 15:00:00,2,10924,64,0.11,2,2,0,2,7767,13800,1800,11078,40,77,16,71,0.00,0.25,0.07,0.12
2014-09-26 15:10:00,2,33126,74,0.02,2,2,0,2,8886,50000,15880,36118,71,77,3,74,0.00,0.10,0.03,0.00
2014-09-26 15:20:00,2,43937,7,0.00,2,2,0,2,21511,50000,10549,50000,0,71,21,0,0.00,0.00,0.00,0.00
2014-09-26 15:30:00,2,24230,66,0.02,2,2,0,2,11816,47425,13629,16795,0,77,22,71,0.00,0.05,0.02,0.00
2014-09-26 15:40:00,2,37182,0,0.00,2,2,0,2,31628,44762,3864,36934,0,0,0,0,0.00,0.00,0.00,0.00
2014-09-26 15:50:00,2,34102,7,0.00,2,2,0,2,12971,49115,10967,36150,0,71,21,0,0.00,0.00,0.00,0.00
2014-09-26 16:00:00,2,37463,21,0.00,2,2,0,2,16613,50000,10305,39350,0,71,33,0,0.00,0.00,0.00,0.00
2014-09-26 16:10:00,2,44148,0,0.00,2,2,0,2,37603,50000,4136,43766,0,0,0,0,0.00,0.00,0.00,0.00
2014-09-26 16:20:00,2,47721,0,0.00,2,2,0,2,44750,50000,2102,47591,0,0,0,0,0.00,0.00,0.00,0.00
2014-09-26 16:30:00,2,49351,0,0.00,2,2,0,2,46802,50000,1016,50000,0,0,0,0,0.00,0.00,0.00,0.00
2014-09-26 16:40:00,2,47402,0,0.00,2,2,0,2,42708,50000,2563,47890,0,0,0,0,0.00,0.00,0.00,0.00
2014-09-26 16:50:00,2,48107,0,0.00,2,2,0,2,42342,50000,2271,48801,0,0,0,0,0.00,0.00,0.00,0.00
2014-09-26 17:00:00,2,49082,0,0.00,2,2,0,2,44275,50000,1741,50000,0,0,0,0,0.00,0.00,0.00,0.00
2014-09-26 17:10:00,2,48126,0,0.00,2,2,0,2,41294,50000,2555,49316,0,0,0,0,0.00,0.00,0.00,0.00
2014-09-26 17:20:00,2,46300,0,0.00,2,2,0,2,43126,50000,2307,46524,0,0,0,0,0.00,0.00,0.00,0.00
2014-09-26 17:30:00,2,44281,0,0.00,2,2,0,2,42693,47987,1806,43472,0,0,0,0,0.00,0.00,0.00,0.00
2014-09-26 17:40:00,2,43762,0,0.00,2,2,0,2,37739,48754,3399,44450,0,0,0,0,0.00,0.00,0.00,0.00
2014-09-26 17:50:00,2,43633,0,0.00,2,2,0,2,32649,49002,4335,44106,0,0,0,0,0.00,0.00,0.00,0.00
2014-09-26 18:00:00,2,43127,0,0.00,2,2,0,2,39870,47376,2390,42541,0,0,0,0,0.00,0.00,0.00,0.00
2014-09-26 18:10:00,2,41989,0,0.00,2,2,0,2,38574,49157,3225,40654,0,0,0,0,0.00,0.00,0.00,0.00
2014-09-26 18:20:00,2,46694,0,0.00,2,2,0,2,39036,50000,3121,47060,0,0,0,0,0.00,0.00,0.00,0.00
2014-09-26 18:30:00,2,42509,0,0.00,2,2,0,2,37338,47741,3070,42715,0,0,0,0,0.00,0.00,0.00,0.00
2014-09-26 18:40:00,2,44024,0,0.00,2,2,0,2,37736,48382,3153,44525,0,0,0,0,0.00,0.00,0.00,0.00
2014-09-26 18:50:00,2,40951,0,0.00,2,2,0,2,34574,48069,4810,39887,0,0,0,0,0.00,0.00,0.00,0.00
2014-09-26 19:00:00,2,38957,0,0.00,2,2,0,2,27657,50000,6922,37211,0,0,0,0,0.00,0.00,0.00,0.00
2014-09-26 19:10:00,2,42590,0,0.00,2,2,0,2,34593,46807,3965,43904,0,0,0,0,0.00,0.00,0.00,0.00
2014-09-26 19:20:00,2,37030,0,0.00,2,2,0,2,33802,42373,2632,36648,0,0,0,0,0.00,0.00,0.00,0.00
2014-09-26 19:30:00,2,39522,0,0.00,2,2,0,2,31432,46502,4578,38371,0,0,0,0,0.00,0.00,0.00,0.00
2014-09-26 19:40:00,2,39681,0,0.00,2,2,0,2,34359,46388,3737,38810,0,0,0,0,0.00,0.00,0.00,0.00
2014-09-26 19:50:00,2,36479,0,0.00,2,2,0,2,33414,40232,2188,36198,0,0,0,0,0.00,0.00,0.00,0.00
2014-09-26 20:00:00,2,34864,0,0.00,2,2,0,2,30362,39819,2739,33963,0,0,0,0,0.00,0.00,0.00,0.00
2014-09-26 20:10:00,2,38171,0,0.00,2,2,0,2,29741,47027,5619,39064,0,0,0,0,0.00,0.00,0.00,0.00
2014-09-26 20:20:00,2,33042,0,0.00,2,2,0,2,29249,39216,3019,32416,0,0,0,0,0.00,0.00,0.00,0.00
2014-09-26 20:30:00,2,36448,0,0.00,2,2,0,2,31920,44530,4226,35182,0,0,0,0,0.00,0.00,0.00,0.00
2014-09-26 20:40:00,2,37180,0,0.00,2,2,0,2,32952,43209,2608,36844,0,0,0,0,0.00,0.00,0.00,0.00
2014-09-26 20:50:00,2,38031,0,0.00,2,2,0,2,33173,44600,3484,37072,0,0,0,0,0.00,0.00,0.00,0.00
2014-09-26 21:00:00,2,37182,0,0.00,2,2,0,2,32859,42980,3558,35647,0,0,0,0,0.00,0.00,0.00,0.00
2014-09-26 21:10:00,2,34172,0,0.00,2,2,0,2,30495,39063,2413,34258,0,0,0,0,0.00,0.00,0.00,0.00
2014-09-26 21:20:00,2,36682,0,0.00,2,2,0,2,31101,44415,3830,36742,0,0,0,0,0.00,0.00,0.00,0.00
2014-09-26 21:30:00,2,38067,0,0.00,2,2,0,2,32190,45295,4005,37648,0,0,0,0,0.00,0.00,0.00,0.00
2014-09-26 21:40:00,2,39837,0,0.00,2,2,0,2,34666,45104,3043,40332,0,0,0,0,0.00,0.00,0.00,0.00
2014-09-26 21:50:00,2,41784,0,0.00,2,2,0,2,37208,48575,3709,40802,0,0,0,0,0.00,0.00,0.00,0.00
2014-09-26 22:00:00,2,44108,0,0.00,2,2,0,2,39798,50000,3517,43550,0,0,0,0,0.00,0.00,0.00,0.00
2014-09-26 22:10:00,2,48142,0,0.00,2,2,0,2,41751,50000,2500,48938,0,0,0,0,0.00,0.00,0.00,0.00
2014-09-26 22:20:00,2,43175,0,0.00,2,2,0,2,34729,50000,4768,44200,0,0,0,0,0.00,0.00,0.00,0.00
2014-09-26 22:30:00,2,46616,0,0.00,2,2,0,2,39631,50000,3423,47610,0,0,0,0,0.00,0.00,0.00,0.00
2014-09-26 22:40:00,2,39998,0,0.00,2,2,0,2,31132,48423,4893,40168,0,0,0,0,0.00,0.00,0.00,0.00
2014-09-26 22:50:00,2,41603,0,0.00,2,2,0,2,29475,47128,6418,44357,0,0,0,0,0.00,0.00,0.00,0.00
2014-09-26 23:00:00,2,45700,0,0.00,2,2,0,2,38589,50000,3951,44892,0,0,0,0,0.00,0.00,0.00,0.00
2014-09-26 23:10:00,2,47278,0,0.00,2,2,0,2,42285,50000,2659,47280,0,0,0,0,0.00,0.00,0.00,0.00
2014-09-26 23:20:00,2,48673,0,0.00,2,2,0,2,44929,50000,1721,49406,0,0,0,0,0.00,0.00,0.00,0.00
2014-09-26 23:30:00,2,47026,0,0.00,2,2,0,2,41147,50000,2840,48200,0,0,0,0,0.00,0.00,0.00,0.00
2014-09-26 23:40:00,2,45160,0,0.00,2,2,0,2,38792,50000,3343,45106,0,0,0,0,0.00,0.00,0.00,0.00
2014-09-26 23:50:00,2,48808,0,0.00,2,2,0,2,44488,50000,1893,50000,0,0,0,0,0.00,0.00,0.00,0.00
